Find Starlink 35867

NORAD ID: 66791 Int'l Des: 2025-278 Owner: SPXS Country: US Constellation: starlink operational
LEOCIRCULAR

現在のビュー

3D地球を読み込み中...

Starlink 35867について

説明を読み込み中...

次回通過

Passes for default location (London). Set your location on the main map for personalized predictions.

高度履歴

Loading altitude history...

軌道要素

1 66791U 25278A 26146.03731222 .00027410 00000-0 10010-2 0 9990
2 66791 43.0003 37.9662 0001595 262.2892 97.7779 15.27609454 27036
Epoch: May 26, 2026 • Age: 19 hours

現在のステータス

高度 482.7 km
速度 7.63 km/s
衛星直下点 19.94°N, 0.51°E
打ち上げ日 Dec 1, 2025
運用期間 0.4 years
タイプ internet

技術仕様

分類 Payload
質量 575.00 kg
乾燥質量 530.00 kg
総質量 575.00 kg
長さ 0.30 m
直径 4.10 m
スパン 29.00 m
形状 Box + pan
製造者 SPXS
バスタイプ Starlink V2MO
フェーズステータス In Orbit
所有者/国 SPXS/US

Most Searched